Regional Weather Roundup
Issued by NWS Raleigh/Durham, NC

Home | Current Version | Previous Version | Text Only | Print | Product List | Glossary On
Versions: 1 2 3 4 5 6 7 8 9 10 11 12 13 14 15 16 17 18 19 20 21 22 23 24 25 26 27 28 29 30 31 32 33 34 35 36 37 38 39 40 41 42 43 44 45 46 47 48 49 50
000
ASUS42 KRAH 210610
RWRRAH
NORTH CAROLINA WEATHER ROUNDUP
NATIONAL WEATHER SERVICE RALEIGH NC
200 AM EDT FRI SEP 21 2018

NOTE: "FAIR" INDICATES FEW OR NO CLOUDS BELOW 12,000 FEET WITH NO
SIGNIFICANT WEATHER AND/OR OBSTRUCTIONS TO VISIBILITY.

NCZ001-053-055-056-065-067-210700-
WESTERN NORTH CAROLINA

CITY           SKY/WX    TMP DP  RH WIND       PRES   REMARKS
ASHEVILLE      FAIR      69  66  90 CALM      30.25S
JEFFERSON      NOT AVBL
MORGANTON      MOCLDY    70  70  99 CALM      30.23F
HICKORY        MOCLDY    73  68  84 S6        30.20S
RUTHERFORDTON  NOT AVBL
MOUNT AIRY     CLOUDY    74  70  87 SE3       30.23S
BOONE          FAIR      63  63 100 CALM      30.30S FOG
$$

NCZ021-022-025-041-071-084-088-210700-
CENTRAL NORTH CAROLINA

CITY           SKY/WX    TMP DP  RH WIND       PRES   REMARKS
CHARLOTTE      FAIR      74  71  91 S7        30.20S
GREENSBORO     FAIR      73  70  90 S9        30.19F
WINSTON-SALEM  FAIR      73  69  87 S6        30.20F
RALEIGH-DURHAM MOCLDY    73  67  81 S7        30.21S
FORT BRAGG     FAIR      73  70  90 CALM      30.19S
FAYETTEVILLE   FAIR      72  69  90 E3        30.19S
BURLINGTON     FAIR      74  69  85 VRB5      30.19S
LAURINBURG     NOT AVBL
$$

NCZ011-015-027-028-043-044-047-080-103-210700-
NORTHEASTERN NORTH CAROLINA

CITY           SKY/WX    TMP DP  RH WIND       PRES   REMARKS
ROCKY MT-WILSO FAIR      66  65  96 CALM      30.21F
GREENVILLE     FAIR      66  64  94 CALM      30.21F
WASHINGTON     FAIR      65  64  96 CALM      30.21F
ELIZABETH CITY FAIR      68  66  93 NW3       30.21F
MANTEO         NOT AVBL
CAPE HATTERAS  FAIR      73  65  75 NE5       30.18S
$$

NCZ078-087-090-091-093-098-101-210700-
SOUTHEASTERN NORTH CAROLINA

CITY           SKY/WX    TMP DP  RH WIND       PRES   REMARKS
LUMBERTON      NOT AVBL
GOLDSBORO      FAIR      69  67  92 CALM      30.19F
KINSTON        FAIR      68  66  92 CALM      30.21F
KENANSVILLE    FAIR      68  66  94 CALM      30.20F FOG
NEW BERN       FAIR      68  67  96 NE3       30.20F
CHERRY POINT   NOT AVBL
BEAUFORT       NOT AVBL
JACKSONVILLE   FAIR      72  66  81 E7        30.18F
WILMINGTON     FAIR      70  66  87 NE5       30.18F
$$




USA.gov is the U.S. government's official web portal to all federal, state and local government web resources and services.